This is the latest recevied weather packets stored in our database for station/object KM4RT-13. If no packets are shown the sender has not sent any weather packets the latest 10 day(s).
| Time | Temp. | Humidity | Pressure | Rain* | Wind** | Luminosity | Snow |
|---|---|---|---|---|---|---|---|
| 1777856022 | 19.44° C | 47% | 1012.6 hPa | 0 mm | - | 1 W/m² | - |
| 1777855720 | 19.44° C | 47% | 1012.6 hPa | 0 mm | - | 2 W/m² | - |
| 1777855417 | 20° C | 46% | 1012.6 hPa | 0 mm | - | 4 W/m² | - |
| 1777855114 | 20° C | 46% | 1012.8 hPa | 0 mm | - | 5 W/m² | - |
| 1777854811 | 20.56° C | 45% | 1012.6 hPa | 0 mm | - | 8 W/m² | - |
| 1777854507 | 20.56° C | 43% | 1012.6 hPa | 0 mm | - | 11 W/m² | - |
| 1777854204 | 21.11° C | 43% | 1012.6 hPa | 0 mm | - | 14 W/m² | - |
| 1777853902 | 21.11° C | 42% | 1012.6 hPa | 0 mm | - | 18 W/m² | - |
| 1777853599 | 21.11° C | 41% | 1012.6 hPa | 0 mm | - | 24 W/m² | - |
| 1777853296 | 21.67° C | 40% | 1012.7 hPa | 0 mm | - | 29 W/m² | - |
| 1777852993 | 21.67° C | 41% | 1012.9 hPa | 0 mm | - | 34 W/m² | - |
| 1777852690 | 21.67° C | 40% | 1012.8 hPa | 0 mm | - | 40 W/m² | - |
| 1777852388 | 21.67° C | 39% | 1012.7 hPa | 0 mm | - | 47 W/m² | - |
| 1777852085 | 21.67° C | 39% | 1012.7 hPa | 0 mm | - | 54 W/m² | - |
| 1777851783 | 21.67° C | 39% | 1012.8 hPa | 0 mm | - | 62 W/m² | - |
| 1777851480 | 22.22° C | 37% | 1012.8 hPa | 0 mm | - | 70 W/m² | - |
| 1777851175 | 22.22° C | 37% | 1013.2 hPa | 0 mm | - | 46 W/m² | - |
| 1777850873 | 22.22° C | 37% | 1012.8 hPa | 0 mm | - | 58 W/m² | - |
| 1777850570 | 22.22° C | 38% | 1012.9 hPa | 0 mm | - | 98 W/m² | - |
| 1777850268 | 22.22° C | 38% | 1013.2 hPa | 0 mm | - | 109 W/m² | - |
| 1777849965 | 22.22° C | 36% | 1013 hPa | 0 mm | - | 67 W/m² | - |
| 1777849660 | 22.22° C | 37% | 1013.2 hPa | 0 mm | - | 79 W/m² | - |
| 1777849358 | 22.22° C | 36% | 1013.1 hPa | 0 mm | - | 144 W/m² | - |
| 1777849056 | 22.22° C | 38% | 1013.1 hPa | 0 mm | - | 149 W/m² | - |
| 1777848756 | 22.22° C | 39% | 1013.4 hPa | 0 mm | - | 150 W/m² | - |
* Rain latest hour (hover to see other rain measurements)
** Current wind speed in m/s (hover to see current wind gust speed)